FW6726 Weather Reports


Display with metric or nautical units.
time (UTC)temp
F
wind
direction
speed
MPH
gust
MPH
rain 1hr
in
rain 24hr
in
rain mn
in
humidity
%
barometer
mb
20260904113917 64 25 3.0 5.0 0.00 0.00 0.00 79 1014.3
20260904113416 64 42 2.0 4.0 0.00 0.00 0.00 79 1014.3
20260904113137 64 30 1.0 4.0 0.00 0.00 0.00 79 1014.3
20260904112415 64 16 1.0 3.0 0.00 0.00 0.00 79 1014.3
20260904111914 64 16 1.0 3.0 0.00 0.00 0.00 79 1014.3
20260904111415 64 16 2.0 3.0 0.00 0.00 0.00 79 1014.3
20260904111130 64 14 2.0 3.0 0.00 0.00 0.00 79 1014.3
20260904110414 64 316 1.0 2.0 0.00 0.00 0.00 79 1014.2
20260904105915 64 316 0.0 0.0 0.00 0.00 0.00 79 1014.3
20260904105414 64 316 0.0 0.0 0.00 0.00 0.00 79 1014.3
20260904104914 64 316 0.0 2.0 0.00 0.00 0.00 80 1014.3
20260904104414 64 316 0.0 3.0 0.00 0.00 0.00 80 1014.3
20260904104142 64 316 1.0 3.0 0.00 0.00 0.00 80 1014.3
20260904103414 64 316 2.0 4.0 0.00 0.00 0.00 81 1014.2
20260904102913 64 316 3.0 5.0 0.00 0.00 0.00 81 1014.2
20260904102413 64 298 3.0 5.0 0.00 0.00 0.00 81 1014.2
20260904101913 64 292 5.0 7.0 0.00 0.00 0.00 81 1014.3
20260904101849 64 285 5.0 7.0 0.00 0.00 0.00 80 1014.3
20260904100913 64 282 6.0 6.0 0.00 0.00 0.00 80 1014.3
20260904100411 64 300 5.0 7.0 0.00 0.00 0.00 80 1014.3
20260904095913 64 278 5.0 7.0 0.00 0.00 0.00 80 1014.3
20260904095415 64 279 4.0 5.0 0.00 0.00 0.00 80 1014.2
20260904094913 64 275 4.0 5.0 0.00 0.00 0.00 79 1014.3
20260904094637 64 272 4.0 5.0 0.00 0.00 0.00 78 1014.2
20260904093914 64 275 4.0 5.0 0.00 0.00 0.00 78 1014.2
20260904093412 64 281 3.0 5.0 0.00 0.00 0.00 78 1014.2
20260904092913 65 324 4.0 4.0 0.00 0.00 0.00 78 1014.1
20260904092412 65 23 2.0 3.0 0.00 0.00 0.00 78 1014.1
20260904091912 65 23 1.0 4.0 0.00 0.00 0.00 79 1014.1
20260904091412 65 23 1.0 4.0 0.00 0.00 0.00 78 1014.1
20260904090912 65 17 0.0 3.0 0.00 0.00 0.00 77 1014.3
20260904090411 65 14 0.0 3.0 0.00 0.00 0.00 77 1014.3
20260904085911 65 14 2.0 3.0 0.00 0.00 0.00 77 1014.3
20260904085412 65 14 2.0 3.0 0.00 0.00 0.00 78 1014.3
20260904084912 65 7 0.0 3.0 0.00 0.00 0.00 78 1014.4
20260904084410 65 274 0.0 0.0 0.00 0.00 0.00 78 1014.4
20260904083910 65 274 0.0 0.0 0.00 0.00 0.00 77 1014.4
20260904083410 65 274 0.0 1.0 0.00 0.00 0.00 77 1014.4
20260904082910 65 274 0.0 1.0 0.00 0.00 0.00 77 1014.4
20260904082410 65 274 1.0 1.0 0.00 0.00 0.00 76 1014.4
20260904081910 65 274 1.0 1.0 0.00 0.00 0.00 76 1014.5
20260904081410 65 274 0.0 2.0 0.00 0.00 0.00 76 1014.4
20260904080910 65 274 1.0 2.0 0.00 0.00 0.00 76 1014.4
20260904080640 65 274 2.0 2.0 0.00 0.00 0.00 76 1014.3
20260904075910 66 274 1.0 2.0 0.00 0.00 0.00 76 1014.3
20260904075410 66 274 1.0 2.0 0.00 0.00 0.00 77 1014.2
20260904074911 66 274 0.0 2.0 0.00 0.00 0.00 76 1014.3
20260904074411 66 274 0.0 2.0 0.00 0.00 0.00 77 1014.2
20260904074353 66 274 1.0 2.0 0.00 0.00 0.00 77 1014.2
20260904073411 66 274 0.0 0.0 0.00 0.00 0.00 77 1014.0
20260904072911 66 274 0.0 0.0 0.00 0.00 0.00 77 1014.0
20260904072410 66 274 0.0 0.0 0.00 0.00 0.00 76 1014.1
20260904071910 66 274 0.0 0.0 0.00 0.00 0.00 76 1014.1
20260904071410 66 274 0.0 0.0 0.00 0.00 0.00 76 1014.2
20260904070909 67 274 0.0 1.0 0.00 0.00 0.00 76 1014.1
20260904070409 67 274 0.0 1.0 0.00 0.00 0.00 77 1014.2
20260904065908 67 274 0.0 2.0 0.00 0.00 0.00 77 1014.2
20260904065408 67 274 0.0 2.0 0.00 0.00 0.00 77 1014.2
20260904064908 67 274 2.0 2.0 0.00 0.00 0.00 77 1014.2
20260904064408 67 274 2.0 2.0 0.00 0.00 0.00 77 1014.2
20260904063909 67 274 1.0 2.0 0.00 0.00 0.00 77 1014.1
20260904063624 67 274 1.0 2.0 0.00 0.00 0.00 77 1014.1
20260904062908 67 274 0.0 1.0 0.00 0.00 0.00 76 1014.1
20260904062405 67 274 0.0 2.0 0.00 0.00 0.00 76 1014.1
20260904061904 67 274 0.0 2.0 0.00 0.00 0.00 76 1014.1
20260904061403 67 274 0.0 2.0 0.00 0.00 0.00 75 1014.1
20260904060903 67 274 0.0 2.0 0.00 0.00 0.00 75 1014.1
20260904060624 67 274 1.0 2.0 0.00 0.00 0.00 74 1014.1
20260904055902 67 275 0.0 3.0 0.00 0.00 0.00 75 1014.2
20260904055402 67 275 0.0 6.0 0.00 0.00 0.00 75 1014.2
20260904054902 67 272 3.0 6.0 0.00 0.00 0.00 75 1014.1
20260904054402 67 274 5.0 6.0 0.00 0.00 0.00 75 1014.1
20260904053903 67 281 4.0 5.0 0.00 0.00 0.00 74 1014.1
20260904053402 67 300 4.0 5.0 0.00 0.00 0.00 74 1014.2
20260904052902 67 300 4.0 5.0 0.00 0.00 0.00 75 1014.3
20260904052402 67 305 4.0 4.0 0.00 0.00 0.00 75 1014.3
20260904051902 67 306 3.0 5.0 0.00 0.00 0.00 75 1014.3
20260904051402 68 306 4.0 5.0 0.00 0.00 0.00 75 1014.3
20260904050902 68 309 3.0 5.0 0.00 0.00 0.00 74 1014.3
20260904050403 69 54 0.0 0.0 0.00 0.00 0.00 74 1014.3
20260904045903 69 54 0.0 0.0 0.00 0.00 0.00 73 1014.4
20260904045625 69 52 0.0 2.0 0.00 0.00 0.00 73 1014.3
20260904045125 69 52 0.0 3.0 0.00 0.00 0.00 73 1014.2
20260904044402 69 52 2.0 4.0 0.00 0.00 0.00 72 1014.3
20260904043902 69 52 2.0 4.0 0.00 0.00 0.00 71 1014.2
20260904043626 69 56 2.0 4.0 0.00 0.00 0.00 70 1014.1
20260904042902 70 56 3.0 3.0 0.00 0.00 0.00 70 1014.2
20260904042402 70 56 1.0 3.0 0.00 0.00 0.00 70 1014.1
20260904041902 70 56 2.0 3.0 0.00 0.00 0.00 70 1014.1
20260904041402 70 56 1.0 3.0 0.00 0.00 0.00 69 1014.0
20260904040902 70 56 1.0 3.0 0.00 0.00 0.00 69 1014.0
20260904040402 70 56 1.0 3.0 0.00 0.00 0.00 69 1014.0
20260904035904 70 56 2.0 3.0 0.00 0.00 0.00 68 1014.1
20260904035345 70 56 0.0 0.0 0.00 0.00 0.00 68 1014.0
20260904035111 70 56 0.0 0.0 0.00 0.00 0.00 66 1013.9
20260904034335 70 56 0.0 0.0 0.00 0.00 0.00 67 1014.0
20260904033833 70 56 0.0 0.0 0.00 0.00 0.00 66 1014.0
20260904033332 70 56 0.0 0.0 0.00 0.00 0.00 66 1013.9
20260904032832 71 56 0.0 0.0 0.00 0.00 0.00 66 1013.9
20260904032331 71 56 0.0 0.0 0.00 0.00 0.00 66 1013.9
20260904031832 71 56 0.0 0.0 0.00 0.00 0.00 66 1014.0
20260904031331 71 56 0.0 0.0 0.00 0.00 0.00 66 1014.0
20260904030832 71 56 0.0 0.0 0.00 0.00 0.00 66 1014.1
20260904030332 71 56 0.0 0.0 0.00 0.00 0.00 67 1014.0
20260904025834 72 56 0.0 0.0 0.00 0.00 0.00 69 1014.1
20260904025555 72 56 0.0 0.0 0.00 0.00 0.00 69 1013.9
20260904024833 73 56 0.0 0.0 0.00 0.00 0.00 69 1014.0
20260904024332 73 56 0.0 0.0 0.00 0.00 0.00 69 1014.0
20260904023825 73 56 0.0 0.0 0.00 0.00 0.00 69 1014.0
20260904023325 74 56 0.0 0.0 0.00 0.00 0.00 68 1013.9
20260904022815 74 56 0.0 0.0 0.00 0.00 0.00 67 1013.9
20260904022316 74 56 0.0 1.0 0.00 0.00 0.00 67 1013.9
20260904021805 75 56 0.0 1.0 0.00 0.00 0.00 67 1014.0
20260904021305 75 56 0.0 2.0 0.00 0.00 0.00 66 1014.0
20260904020805 75 56 1.0 2.0 0.00 0.00 0.00 65 1014.0
20260904020739 75 56 2.0 3.0 0.00 0.00 0.00 63 1014.0
20260904020458 75 56 1.0 3.0 0.00 0.00 0.00 64 1014.0
20260904015530 75 56 1.0 2.0 0.00 0.00 0.00 65 1014.1
20260904015025 74 56 0.0 2.0 0.00 0.00 0.00 65 1014.0
20260904014302 74 56 0.0 3.0 0.00 0.00 0.00 65 1014.1
20260904014035 74 56 2.0 3.0 0.00 0.00 0.00 65 1014.0
20260904013302 74 56 2.0 4.0 0.00 0.00 0.00 66 1014.1
20260904012802 74 56 2.0 4.0 0.00 0.00 0.00 67 1014.2
20260904012306 73 56 3.0 4.0 0.00 0.00 0.00 68 1014.3
20260904011804 73 54 3.0 4.0 0.00 0.00 0.00 68 1014.3
20260904011304 74 54 3.0 4.0 0.00 0.00 0.00 69 1014.3
20260904010803 74 54 4.0 4.0 0.00 0.00 0.00 68 1014.4
20260904010302 74 55 3.0 5.0 0.00 0.00 0.00 67 1014.3
20260904005802 74 68 3.0 5.0 0.00 0.00 0.00 68 1014.3
20260904005302 74 75 3.0 5.0 0.00 0.00 0.00 67 1014.4
20260904004801 75 78 3.0 6.0 0.00 0.00 0.00 67 1014.5
20260904004525 75 78 4.0 6.0 0.00 0.00 0.00 66 1014.5
20260904003800 76 69 5.0 6.0 0.00 0.00 0.00 66 1014.6
20260904003258 76 86 3.0 5.0 0.00 0.00 0.00 65 1014.5
20260904002800 76 75 2.0 5.0 0.00 0.00 0.00 63 1014.5
20260904002521 77 79 3.0 6.0 0.00 0.00 0.00 62 1014.6
20260904001759 78 56 4.0 6.0 0.00 0.00 0.00 60 1014.6
20260904001744 80 82 3.0 5.0 0.00 0.00 0.00 58 1014.6
20260904000800 80 102 2.0 5.0 0.00 0.00 0.00 57 1014.6
20260904000259 80 82 3.0 5.0 0.00 0.00 0.00 57 1014.7
20260903235759 81 97 3.0 5.0 0.00 0.00 0.00 57 1014.8
20260903235526 81 99 2.0 5.0 0.00 0.00 0.00 57 1014.7
20260903234759 81 118 2.0 5.0 0.00 0.00 0.00 57 1014.8
20260903234259 82 94 3.0 5.0 0.00 0.00 0.00 54 1014.8
20260903233759 82 135 2.0 5.0 0.00 0.00 0.00 54 1014.9
20260903233526 82 120 2.0 5.0 0.00 0.00 0.00 51 1014.9
20260903232759 82 114 3.0 9.0 0.00 0.00 0.00 55 1015.0
20260903232259 82 130 1.0 9.0 0.00 0.00 0.00 52 1015.0
20260903231759 82 172 4.0 6.0 0.00 0.00 0.00 51 1015.1
20260903231259 82 114 3.0 6.0 0.00 0.00 0.00 52 1015.1
20260903230759 83 152 3.0 9.0 0.00 0.00 0.00 50 1015.2
20260903230257 83 82 2.0 9.0 0.00 0.00 0.00 54 1015.2
20260903225758 83 124 2.0 6.0 0.00 0.00 0.00 53 1015.3
20260903225258 83 140 3.0 6.0 0.00 0.00 0.00 52 1015.4
20260903224758 83 149 2.0 7.0 0.00 0.00 0.00 50 1015.5
20260903224258 83 137 2.0 7.0 0.00 0.00 0.00 50 1015.5
20260903223757 84 145 2.0 6.0 0.00 0.00 0.00 50 1015.5
20260903223257 84 138 3.0 7.0 0.00 0.00 0.00 49 1015.5
20260903222757 83 130 2.0 7.0 0.00 0.00 0.00 49 1015.5
20260903222257 83 125 2.0 7.0 0.00 0.00 0.00 50 1015.6
20260903221757 83 113 2.0 6.0 0.00 0.00 0.00 50 1015.7
20260903221258 83 121 3.0 5.0 0.00 0.00 0.00 51 1015.7
20260903221249 83 125 3.0 6.0 0.00 0.00 0.00 50 1015.7
20260903220257 83 127 3.0 6.0 0.00 0.00 0.00 50 1015.8
20260903215756 83 96 3.0 7.0 0.00 0.00 0.00 49 1015.8
20260903215257 83 134 4.0 7.0 0.00 0.00 0.00 47 1015.9
20260903214755 83 148 4.0 7.0 0.00 0.00 0.00 50 1015.9
20260903214257 83 111 4.0 7.0 0.00 0.00 0.00 49 1016.0
20260903213756 83 134 4.0 7.0 0.00 0.00 0.00 49 1016.0
20260903213514 83 125 4.0 7.0 0.00 0.00 0.00 51 1015.9
20260903212756 83 109 4.0 7.0 0.00 0.00 0.00 50 1016.0
20260903212257 83 133 3.0 7.0 0.00 0.00 0.00 48 1016.0
20260903212019 83 123 3.0 7.0 0.00 0.00 0.00 50 1016.0
20260903211255 83 127 3.0 6.0 0.00 0.00 0.00 49 1016.0
20260903210755 83 124 3.0 7.0 0.00 0.00 0.00 49 1016.0
20260903210255 83 145 3.0 7.0 0.00 0.00 0.00 50 1016.0
20260903205755 83 96 3.0 7.0 0.00 0.00 0.00 51 1016.1
20260903205518 82 131 3.0 9.0 0.00 0.00 0.00 52 1016.1
20260903204756 82 125 3.0 9.0 0.00 0.00 0.00 52 1016.1
20260903204511 82 140 4.0 9.0 0.00 0.00 0.00 51 1016.1
20260903203754 82 117 5.0 9.0 0.00 0.00 0.00 51 1016.1
20260903203254 82 116 3.0 6.0 0.00 0.00 0.00 51 1016.2
20260903202754 82 120 3.0 7.0 0.00 0.00 0.00 51 1016.2
20260903202255 82 125 4.0 7.0 0.00 0.00 0.00 53 1016.2
20260903201754 82 113 4.0 9.0 0.00 0.00 0.00 53 1016.3
20260903201254 82 111 3.0 9.0 0.00 0.00 0.00 53 1016.4
20260903200754 82 92 4.0 7.0 0.00 0.00 0.00 53 1016.4
20260903200254 82 133 4.0 7.0 0.00 0.00 0.00 53 1016.4
20260903195754 82 94 2.0 6.0 0.00 0.00 0.00 53 1016.5
20260903195255 82 145 3.0 7.0 0.00 0.00 0.00 55 1016.5
20260903194753 81 144 3.0 10.0 0.00 0.00 0.00 53 1016.7
20260903194514 81 78 4.0 10.0 0.00 0.00 0.00 54 1016.7
20260903193753 81 135 3.0 6.0 0.00 0.00 0.00 54 1016.7
20260903193513 81 123 2.0 9.0 0.00 0.00 0.00 55 1016.7
20260903192753 81 102 3.0 9.0 0.00 0.00 0.00 57 1016.7
20260903192520 80 114 3.0 9.0 0.00 0.00 0.00 57 1016.7
20260903191755 80 93 3.0 10.0 0.00 0.00 0.00 58 1016.7
20260903191254 79 121 4.0 10.0 0.00 0.00 0.00 58 1016.8
20260903190754 78 104 3.0 6.0 0.00 0.00 0.00 59 1016.8
20260903190253 78 100 3.0 6.0 0.00 0.00 0.00 61 1016.8
20260903185754 78 131 3.0 7.0 0.00 0.00 0.00 62 1017.0
20260903185253 78 96 4.0 7.0 0.00 0.00 0.00 63 1016.9
20260903184755 77 96 4.0 10.0 0.00 0.00 0.00 64 1017.0
20260903184253 77 100 5.0 11.0 0.00 0.00 0.00 64 1017.1
20260903184018 77 99 5.0 11.0 0.00 0.00 0.00 64 1017.1
20260903183252 77 93 6.0 11.0 0.00 0.00 0.00 64 1017.1
20260903182753 77 100 4.0 7.0 0.00 0.00 0.00 63 1017.1
20260903182252 77 106 4.0 10.0 0.00 0.00 0.00 64 1017.1
20260903181753 77 114 3.0 10.0 0.00 0.00 0.00 64 1017.1
20260903181522 78 97 4.0 9.0 0.00 0.00 0.00 63 1017.1
20260903180754 77 109 3.0 9.0 0.00 0.00 0.00 63 1017.0
20260903180252 77 135 3.0 9.0 0.00 0.00 0.00 63 1017.1
20260903175753 77 102 4.0 9.0 0.00 0.00 0.00 63 1017.1
20260903175252 77 120 3.0 9.0 0.00 0.00 0.00 63 1017.1
20260903174751 77 118 2.0 11.0 0.00 0.00 0.00 63 1017.0
20260903174516 77 86 4.0 11.0 0.00 0.00 0.00 62 1017.0
20260903173751 77 113 4.0 6.0 0.00 0.00 0.00 62 1017.0
20260903173513 77 111 2.0 6.0 0.00 0.00 0.00 62 1017.0
20260903172752 76 100 4.0 9.0 0.00 0.00 0.00 63 1017.0
20260903172510 76 103 3.0 11.0 0.00 0.00 0.00 64 1017.0
20260903171750 76 117 4.0 11.0 0.00 0.00 0.00 64 1016.9
20260903171512 77 92 6.0 10.0 0.00 0.00 0.00 63 1016.8
20260903170751 77 94 4.0 6.0 0.00 0.00 0.00 63 1016.8
20260903170250 76 96 2.0 6.0 0.00 0.00 0.00 63 1016.7
20260903165751 76 106 2.0 7.0 0.00 0.00 0.00 63 1016.8
20260903165250 76 99 3.0 7.0 0.00 0.00 0.00 62 1016.7
20260903164750 76 104 3.0 6.0 0.00 0.00 0.00 61 1016.7
20260903164250 75 99 3.0 6.0 0.00 0.00 0.00 61 1016.7
20260903164012 75 94 2.0 5.0 0.00 0.00 0.00 61 1016.7
20260903163251 75 94 2.0 4.0 0.00 0.00 0.00 61 1016.7
20260903162749 74 96 2.0 5.0 0.00 0.00 0.00 61 1016.7
20260903162248 74 96 3.0 5.0 0.00 0.00 0.00 61 1016.6
20260903162009 74 111 2.0 4.0 0.00 0.00 0.00 62 1016.7
20260903161510 73 109 2.0 4.0 0.00 0.00 0.00 63 1016.8
20260903160748 73 123 2.0 4.0 0.00 0.00 0.00 64 1016.8
20260903160248 72 106 2.0 5.0 0.00 0.00 0.00 64 1016.8
20260903155748 72 118 2.0 5.0 0.00 0.00 0.00 65 1016.8
20260903155248 71 107 2.0 4.0 0.00 0.00 0.00 66 1016.7
20260903154748 71 102 2.0 4.0 0.00 0.00 0.00 66 1016.7
20260903154506 70 99 2.0 4.0 0.00 0.00 0.00 67 1016.7
20260903153747 69 97 2.0 3.0 0.00 0.00 0.00 67 1016.7
20260903153250 69 68 1.0 3.0 0.00 0.00 0.00 68 1016.7
20260903152749 68 68 1.0 3.0 0.00 0.00 0.00 69 1016.8
20260903152250 68 68 0.0 3.0 0.00 0.00 0.00 69 1016.7
20260903151749 68 68 1.0 3.0 0.00 0.00 0.00 69 1016.7
20260903151513 68 68 1.0 5.0 0.00 0.00 0.00 69 1016.7
20260903150748 68 68 3.0 6.0 0.00 0.00 0.00 69 1016.7
20260903150249 68 59 3.0 6.0 0.00 0.00 0.00 69 1016.7
20260903145748 68 69 4.0 5.0 0.00 0.00 0.00 69 1016.6
20260903145249 68 72 4.0 5.0 0.00 0.00 0.00 69 1016.5
20260903144748 68 56 4.0 5.0 0.00 0.00 0.00 70 1016.4
20260903144248 67 62 4.0 5.0 0.00 0.00 0.00 70 1016.4
20260903143746 67 59 4.0 5.0 0.00 0.00 0.00 70 1016.2
20260903143247 67 75 3.0 5.0 0.00 0.00 0.00 70 1016.2
20260903143006 67 45 2.0 4.0 0.00 0.00 0.00 71 1016.2
20260903142504 66 45 3.0 4.0 0.00 0.00 0.00 72 1016.1
20260903141746 66 21 2.0 3.0 0.00 0.00 0.00 72 1016.0
20260903141247 65 320 2.0 3.0 0.00 0.00 0.00 72 1015.9
20260903140746 65 317 2.0 3.0 0.00 0.00 0.00 73 1015.9
20260903140247 65 314 2.0 3.0 0.00 0.00 0.00 74 1015.9
20260903135747 65 312 0.0 0.0 0.00 0.00 0.00 74 1015.8
20260903135247 65 309 0.0 0.0 0.00 0.00 0.00 75 1015.7
20260903134746 64 309 0.0 0.0 0.00 0.00 0.00 75 1015.7
20260903134246 64 309 0.0 0.0 0.00 0.00 0.00 75 1015.7
20260903133745 64 309 0.0 0.0 0.00 0.00 0.00 75 1015.6
20260903133245 64 309 0.0 0.0 0.00 0.00 0.00 76 1015.7
20260903132745 64 309 0.0 0.0 0.00 0.00 0.00 76 1015.7
20260903132245 64 309 0.0 0.0 0.00 0.00 0.00 76 1015.7
20260903131744 64 309 0.0 0.0 0.00 0.00 0.00 75 1015.8
20260903131244 64 309 0.0 0.0 0.00 0.00 0.00 75 1015.8
20260903130744 64 310 0.0 0.0 0.00 0.00 0.00 75 1015.7
20260903130244 64 310 0.0 0.0 0.00 0.00 0.00 75 1015.8
20260903125745 64 310 0.0 1.0 0.00 0.00 0.00 75 1015.8
20260903125244 64 309 0.0 3.0 0.00 0.00 0.00 75 1015.8
20260903124744 64 309 2.0 3.0 0.00 0.00 0.00 75 1015.8
20260903124244 64 312 0.0 4.0 0.00 0.00 0.00 75 1015.8
20260903123744 64 312 2.0 5.0 0.00 0.00 0.00 75 1015.8
20260903123244 64 312 4.0 6.0 0.00 0.00 0.00 76 1015.7
20260903123006 64 289 4.0 6.0 0.00 0.00 0.00 76 1015.7
20260903122504 64 282 4.0 6.0 0.00 0.00 0.00 76 1015.7
20260903121745 64 282 4.0 6.0 0.00 0.00 0.00 76 1015.8
20260903121242 64 286 5.0 6.0 0.00 0.00 0.00 76 1015.7
20260903120744 64 282 4.0 5.0 0.00 0.00 0.00 75 1015.8
20260903120243 64 288 4.0 5.0 0.00 0.00 0.00 75 1015.8
20260903115744 64 281 3.0 4.0 0.00 0.00 0.00 75 1015.8
20260903115457 64 283 4.0 4.0 0.00 0.00 0.00 75 1015.9
20260903115444 64 283 3.0 4.0 0.00 0.00 0.00 75 1015.9
20260903114244 65 165 0.0 0.0 0.00 0.00 0.00 76 1015.9